sat.trackr.live / text

‹ back to catalog

STARLINK-34683

NORAD 64857 · 2025-152R

PAYLOAD ACTIVE UNKNOWN

§ Identity

Operator
Country
US
Launch date
2025-07-19
Launch site
AFWTR
Launch vehicle
Mass (kg)
RCS (m²)

Purposes: comms

External: N2YO · Heavens-Above · Gunter

§ Orbital elements

Epoch: 2026-05-25T03:36:14.628384Z

Period
95.64 min
Inclination
97.4506°
Eccentricity
0.0003604
Mean motion
15.05649241 rev/d
Perigee alt
547.0 km
Apogee alt
552.0 km
Semi-major
6,927.7 km
B*
8.6425e-5
RAAN
0.5161°
Arg perigee
63.6485°
Mean anomaly
296.5112°
Rev number
4,692

§ Raw data

STARLINK-346831 64857U 25152R   26145.15016931  .00001189  00000+0  86425-4 0  99962 64857  97.4506   0.5161 0003604  63.6485 296.5112 15.05649241 46925

JSON: /api/v1/satellites/64857 · /tle

For live sub-satellite position, see the globe view (requires WebGL).

§ Visibility from observer

Set your observer location to see the next 7 days of passes ≥ 10°. The values pass through the URL so the page stays shareable.

No JS? Fill the form by hand. The geolocation button needs JavaScript.